This is the latest recevied weather packets stored in our database for station/object N8SHA. If no packets are shown the sender has not sent any weather packets the latest 10 day(s).
| Time | Temp. | Humidity | Pressure | Rain* | Wind** | Luminosity | Snow |
|---|---|---|---|---|---|---|---|
| 1777421081 | 14.44° C | 70% | 1012.7 hPa | 0 mm | - | 18 W/m² | - |
| 1777420778 | 14.44° C | 69% | 1012.6 hPa | 0 mm | - | 20 W/m² | - |
| 1777420468 | 15° C | 69% | 1012.5 hPa | 0 mm | - | 26 W/m² | - |
| 1777420166 | 15° C | 69% | 1012.7 hPa | 0 mm | - | 33 W/m² | - |
| 1777419861 | 15° C | 70% | 1012.8 hPa | 0 mm | - | 35 W/m² | - |
| 1777419558 | 15° C | 70% | 1012.5 hPa | 0 mm | - | 38 W/m² | - |
| 1777419257 | 15° C | 70% | 1012.6 hPa | 0 mm | - | 40 W/m² | - |
| 1777418954 | 15° C | 70% | 1012.3 hPa | 0 mm | - | 37 W/m² | - |
| 1777418649 | 15° C | 70% | 1012.3 hPa | 0 mm | - | 39 W/m² | - |
| 1777418346 | 15° C | 69% | 1012.4 hPa | 0 mm | - | 39 W/m² | - |
| 1777418041 | 15° C | 69% | 1012.7 hPa | 0 mm | - | 40 W/m² | - |
| 1777417737 | 15.56° C | 68% | 1012.5 hPa | 0 mm | - | 44 W/m² | - |
| 1777417433 | 15.56° C | 67% | 1012.5 hPa | 0 mm | - | 82 W/m² | - |
| 1777417130 | 16.67° C | 65% | 1012.2 hPa | 0 mm | - | 149 W/m² | - |
| 1777416825 | 16.11° C | 65% | 1012 hPa | 0 mm | - | 166 W/m² | - |
| 1777416521 | 16.11° C | 66% | 1012.3 hPa | 0 mm | - | 183 W/m² | - |
| 1777416218 | 15.56° C | 66% | 1012.4 hPa | 0 mm | - | 199 W/m² | - |
| 1777415917 | 16.11° C | 66% | 1012.3 hPa | 0 mm | - | 205 W/m² | - |
| 1777415613 | 16.67° C | 64% | 1012 hPa | 0 mm | - | 107 W/m² | - |
| 1777415309 | 17.22° C | 63% | 1012 hPa | 0 mm | - | 246 W/m² | - |
| 1777415004 | 17.22° C | 63% | 1011.8 hPa | 0 mm | - | 260 W/m² | - |
| 1777414703 | 16.67° C | 63% | 1011.9 hPa | 0 mm | - | 268 W/m² | - |
| 1777414400 | 17.22° C | 63% | 1011.8 hPa | 0 mm | - | 273 W/m² | - |
| 1777414099 | 17.78° C | 64% | 1011.7 hPa | 0 mm | - | 301 W/m² | - |
| 1777413794 | 16.67° C | 65% | 1011.7 hPa | 0 mm | - | 315 W/m² | - |
* Rain latest hour (hover to see other rain measurements)
** Current wind speed in m/s (hover to see current wind gust speed)